Time,TemperatureF,DewpointF,PressureIn,WindDirection,WindDirectionDegrees,WindSpeedMPH,WindSpeedGustMPH,Humidity,HourlyPrecipIn,Conditions,Clouds,dailyrainin,SoftwareType,DateUTC
2013-07-29 00:02:00,61.0,45.0,-100.00,SSW,193,21.0,26.0,56,0.00,,,-99.99,,2013-07-29 06:02:00,
2013-07-29 00:12:00,61.0,45.0,-100.00,SSW,193,19.0,24.0,57,0.00,,,-99.99,,2013-07-29 06:12:00,
2013-07-29 00:43:00,61.0,44.0,-100.00,SSW,195,19.0,24.0,55,0.00,,,-99.99,,2013-07-29 06:43:00,
2013-07-29 01:33:00,61.0,43.0,-100.00,SSW,196,19.0,24.0,51,0.00,,,-99.99,,2013-07-29 07:33:00,
2013-07-29 01:43:00,61.0,42.0,-100.00,SSW,202,19.0,27.0,49,0.00,,,-99.99,,2013-07-29 07:43:00,
2013-07-29 02:02:00,61.0,42.0,-100.00,SSW,203,16.0,26.0,50,0.00,,,-99.99,,2013-07-29 08:02:00,
2013-07-29 02:12:00,61.0,42.0,-100.00,SW,219,12.0,20.0,50,0.00,,,-99.99,,2013-07-29 08:12:00,
2013-07-29 02:42:00,59.0,42.0,-100.00,WSW,243,12.0,16.0,53,0.00,,,-99.99,,2013-07-29 08:42:00,
2013-07-29 02:52:00,59.0,42.0,-100.00,WSW,240,11.0,15.0,53,0.00,,,-99.99,,2013-07-29 08:52:00,
2013-07-29 03:02:00,58.0,42.0,-100.00,SW,232,11.0,15.0,55,0.00,,,-99.99,,2013-07-29 09:02:00,
2013-07-29 03:12:00,58.0,42.0,-100.00,SW,217,12.0,17.0,56,0.00,,,-99.99,,2013-07-29 09:12:00,
2013-07-29 03:22:00,58.0,42.0,-100.00,SSW,213,12.0,17.0,56,0.00,,,-99.99,,2013-07-29 09:22:00,
2013-07-29 03:43:00,58.0,42.0,-100.00,SSW,196,17.0,22.0,56,0.00,,,-99.99,,2013-07-29 09:43:00,
2013-07-29 04:02:00,58.0,42.0,-100.00,SSW,192,19.0,22.0,54,0.00,,,-99.99,,2013-07-29 10:02:00,
2013-07-29 04:13:00,58.0,42.0,-100.00,SSW,193,18.0,21.0,54,0.00,,,-99.99,,2013-07-29 10:13:00,
2013-07-29 04:47:00,58.0,41.0,-100.00,SSW,195,17.0,21.0,54,0.00,,,-99.99,,2013-07-29 10:47:00,
2013-07-29 05:04:00,58.0,41.0,-100.00,SSW,199,16.0,21.0,54,0.00,,,-99.99,,2013-07-29 11:04:00,
2013-07-29 05:15:00,58.0,41.0,-100.00,SSW,199,15.0,19.0,53,0.00,,,-99.99,,2013-07-29 11:15:00,
2013-07-29 05:44:00,58.0,41.0,-100.00,SSW,200,16.0,20.0,52,0.00,,,-99.99,,2013-07-29 11:44:00,
2013-07-29 06:14:00,57.0,41.0,-100.00,SSW,199,16.0,20.0,54,0.00,,,-99.99,,2013-07-29 12:14:00,
2013-07-29 06:44:00,59.0,40.0,-100.00,SSW,209,17.0,22.0,49,0.00,,,-99.99,,2013-07-29 12:44:00,
2013-07-29 07:03:00,59.0,40.0,-100.00,SW,230,13.0,21.0,48,0.00,,,-99.99,,2013-07-29 13:03:00,
2013-07-29 07:15:00,58.0,40.0,-100.00,West,270,11.0,16.0,51,0.00,,,-99.99,,2013-07-29 13:15:00,
2013-07-29 07:43:00,58.0,40.0,-100.00,WNW,284,10.0,15.0,51,0.00,,,-99.99,,2013-07-29 13:43:00,
2013-07-29 08:12:00,59.0,40.0,-100.00,WSW,244,9.0,15.0,48,0.00,,,-99.99,,2013-07-29 14:12:00,
2013-07-29 08:34:00,60.0,39.0,-100.00,WSW,240,12.0,19.0,46,0.00,,,-99.99,,2013-07-29 14:34:00,
2013-07-29 08:44:00,61.0,40.0,-100.00,SW,232,16.0,22.0,46,0.00,,,-99.99,,2013-07-29 14:44:00,
2013-07-29 08:54:00,61.0,40.0,-100.00,SW,236,18.0,24.0,46,0.00,,,-99.99,,2013-07-29 14:54:00,
2013-07-29 09:36:00,63.0,40.0,-100.00,WSW,239,20.0,27.0,43,0.00,,,-99.99,,2013-07-29 15:36:00,
2013-07-29 09:44:00,62.0,40.0,-100.00,WSW,247,19.0,26.0,44,0.00,,,-99.99,,2013-07-29 15:44:00,
2013-07-29 10:44:00,65.0,39.0,-100.00,WSW,241,19.0,26.0,38,0.00,,,-99.99,,2013-07-29 16:44:00,
2013-07-29 11:13:00,67.0,38.0,-100.00,WSW,240,19.0,24.0,33,0.00,,,-99.99,,2013-07-29 17:13:00,
2013-07-29 11:38:00,67.0,38.0,-100.00,WSW,247,17.0,25.0,33,0.00,,,-99.99,,2013-07-29 17:38:00,
2013-07-29 11:44:00,68.0,36.0,-100.00,SW,236,19.0,26.0,31,0.00,,,-99.99,,2013-07-29 17:44:00,
2013-07-29 12:34:00,67.0,36.0,-100.00,WNW,287,17.0,26.0,31,0.00,,,-99.99,,2013-07-29 18:34:00,
2013-07-29 12:44:00,68.0,35.0,-100.00,West,274,17.0,29.0,29,0.00,,,-99.99,,2013-07-29 18:44:00,
2013-07-29 13:15:00,69.0,33.0,-100.00,West,264,16.0,25.0,25,0.00,,,-99.99,,2013-07-29 19:15:00,
2013-07-29 13:45:00,71.0,29.0,-100.00,West,280,15.0,21.0,21,0.00,,,-99.99,,2013-07-29 19:45:00,
2013-07-29 14:47:00,71.0,29.0,-100.00,WNW,285,12.0,21.0,21,0.00,,,-99.99,,2013-07-29 20:47:00,
2013-07-29 16:43:00,68.0,32.0,-100.00,South,176,13.0,19.0,27,0.00,,,-99.99,,2013-07-29 22:43:00,
2013-07-29 17:04:00,69.0,29.0,-100.00,ESE,119,6.0,11.0,23,0.00,,,-99.99,,2013-07-29 23:04:00,
2013-07-29 17:34:00,63.0,38.0,-100.00,West,263,18.0,42.0,39,0.00,,,-99.99,,2013-07-29 23:34:00,
2013-07-29 17:44:00,63.0,36.0,-100.00,SW,219,27.0,37.0,37,0.00,,,-99.99,,2013-07-29 23:44:00,
2013-07-29 18:46:00,63.0,38.0,-100.00,SSW,195,22.0,27.0,40,0.00,,,-99.99,,2013-07-30 00:46:00,
2013-07-29 19:05:00,64.0,37.0,-100.00,South,186,20.0,25.0,36,0.00,,,-99.99,,2013-07-30 01:05:00,
2013-07-29 19:15:00,65.0,36.0,-100.00,South,185,16.0,21.0,34,0.00,,,-99.99,,2013-07-30 01:15:00,
2013-07-29 20:45:00,62.0,37.0,-100.00,SSW,196,16.0,19.0,40,0.00,,,-99.99,,2013-07-30 02:45:00,
2013-07-29 21:34:00,60.0,36.0,-100.00,SSW,193,9.0,11.0,40,0.00,,,-99.99,,2013-07-30 03:34:00,
2013-07-29 21:43:00,61.0,36.0,-100.00,SSW,200,7.0,11.0,39,0.00,,,-99.99,,2013-07-30 03:43:00,
2013-07-29 22:43:00,59.0,38.0,-100.00,SSW,193,13.0,17.0,45,0.00,,,-99.99,,2013-07-30 04:43:00,
2013-07-29 23:03:00,58.0,38.0,-100.00,NNW,333,3.0,7.0,48,0.00,,,-99.99,,2013-07-30 05:03:00,
2013-07-29 23:32:00,58.0,38.0,-100.00,WSW,254,4.0,7.0,48,0.00,,,-99.99,,2013-07-30 05:32:00,